Location: Newark
(44.1667°N, 8.2500°E)
Time: 17:52:54
(UTC+00:00)

Transit 4A - Pass Details

Date: 11 December 2019
Orbit: 871 x 973 km, 66.8° (Epoch: 24 January)

Event Time Altitude Azimuth Distance (km) Brightness Sun altitude
Rises 18:34:41 0° 271° (W) 3,583 12.2 -28.9°
Reaches altitude 10° 18:38:27 10° 294° (WNW) 2,620 11.0 -29.6°
Maximum altitude 18:41:54 15° 329° (NNW) 2,238 10.1 -30.2°
Enters shadow 18:44:29 12° 356° (N) 2,439 10.1 -30.6°
